Content
SEND FEEDBACK

Daily
Averages
Monthly
Summary
United States of America

YARMOUTH, MASSACHUSETTS


Home > North America > United States > Massachusetts
Elevation: 52 feet     Latitude: 41 40N     Longitude: 070 16W

WEATHER
 
SELECT A DAY
Number of Records: 211,307;   Date Range: 1/1/95 - 11/26/14
 
SHARE

PRINT THIS DATA

[ ← Previous Day ]
WEATHER ALMANAC - NOVEMBER 1, 2013
[ Next Day → ]
[ °C ]   °F
Weather ElementAverageHighLow
Temperature63.8 °F66.9 °F (12:56 pm)62.1 °F (5:56 pm)
Dewpoint60.5 °F64.4 °F (11:45 am)55 °F (10:56 pm)
Humidity89.2 %97 % (2:56 am)77 % (3:03 pm)
Barometer29.68 in29.83 in (1:02 am)29.56 in (5:56 pm)
Wind Speed18.4 mph28.8 mph (1:56 pm)
Wind Gust44.9 mph (1:56 pm)
Weather ElementAverage
Visibility6.2 mi
Wind DirectionSSW (211 °)

Weather ElementTotal
Precipitation0.06 in
Heating Degree Days0.5 (Base 65)
Growing Degree Days14.5 (Base 50)
Averaged from 42 records on November 1, 2013
WEATHER CONDITIONS BREAKOUT
WIND DIRECTION BREAKOUT
WEATHER BY HOUR - NOVEMBER 1, 2013
[ °C ]   °F
Local TimeTemperatureDewpointHumidityBarometerVisibilityWind DirectionWind SpeedGust SpeedPrecipitationEventsConditions
1:02 AM62.6 °F60.8 °F94 %29.83 in5.0 miSSW (200°)16.1 mph26.5 mph0.00 inRainLight Rain
1:12 AM62.6 °F60.8 °F94 %29.82 in6.0 miSSW (200°)15.0 mph28.8 mph0.00 inRainLight Rain
1:21 AM62.6 °F60.8 °F94 %29.81 in6.0 miSSW (200°)15.0 mph26.5 mph0.00 inOvercast
1:45 AM62.6 °F60.8 °F94 %29.81 in4.0 miSSW (200°)16.1 mph25.3 mph0.01 inRainLight Rain
1:56 AM63.0 °F61.0 °F93 %29.80 in6.0 miSSW (200°)16.1 mph28.8 mph0.01 inOvercast
2:23 AM62.6 °F60.8 °F94 %29.80 in5.0 miSSW (200°)17.3 mph32.2 mphOvercast
2:47 AM64.4 °F62.6 °F94 %29.78 in6.0 miSSW (210°)20.7 mph31.1 mph0.00 inRainLight Rain
2:56 AM63.0 °F62.1 °F97 %29.78 in6.0 miSSW (200°)17.3 mph27.6 mph0.00 inOvercast
3:56 AM63.0 °F61.0 °F93 %29.76 in5.0 miSSW (200°)18.4 mph25.3 mph0.00 inOvercast
4:34 AM62.6 °F60.8 °F94 %29.73 in6.0 miSSW (200°)17.3 mph25.3 mphOvercast
4:56 AM63.0 °F61.0 °F93 %29.73 in6.0 miSSW (200°)17.3 mph27.6 mphOvercast
5:09 AM62.6 °F60.8 °F94 %29.72 in5.0 miSSW (200°)16.1 mph26.5 mphOvercast
5:37 AM62.6 °F60.8 °F94 %29.72 in6.0 miSSW (210°)16.1 mph25.3 mphOvercast
5:45 AM64.4 °F60.8 °F88 %29.72 in7.0 miSSW (210°)20.7 mph27.6 mphOvercast
5:56 AM64.0 °F61.0 °F90 %29.71 in7.0 miSSW (210°)17.3 mph25.3 mphOvercast
6:42 AM64.4 °F60.8 °F88 %29.71 in6.0 miSSW (210°)15.0 mph29.9 mphOvercast
6:56 AM64.0 °F62.1 °F93 %29.71 in6.0 miSSW (210°)15.0 mph24.2 mphOvercast
7:52 AM64.4 °F62.6 °F94 %29.69 in4.0 miSSW (200°)16.1 mph25.3 mphOvercast
7:56 AM64.0 °F62.1 °F93 %29.70 in4.0 miSSW (200°)17.3 mph26.5 mphOvercast
8:13 AM64.4 °F62.6 °F94 %29.69 in5.0 miSSW (210°)16.1 mph25.3 mphOvercast
8:29 AM64.4 °F62.6 °F94 %29.70 in5.0 miSSW (200°)18.4 mph27.6 mphOvercast
8:56 AM64.9 °F62.1 °F90 %29.70 in5.0 miSSW (200°)16.1 mph31.1 mphOvercast
9:43 AM66.2 °F62.6 °F88 %29.67 in5.0 miSSW (210°)23.0 mph32.2 mphOvercast
9:56 AM66.0 °F63.0 °F90 %29.67 in5.0 miSSW (200°)21.9 mph29.9 mphOvercast
10:56 AM64.9 °F63.0 °F93 %29.65 in2.5 miSSW (210°)24.2 mph32.2 mph0.02 inRainLight Rain
11:05 AM64.4 °F62.6 °F94 %29.63 in4.0 miSSW (200°)24.2 mph36.8 mph0.00 inRainLight Rain
11:45 AM66.2 °F64.4 °F94 %29.61 in5.0 miSSW (200°)26.5 mph40.3 mph0.00 inOvercast
11:56 AM66.0 °F63.0 °F90 %29.61 in5.0 miSSW (210°)18.4 mph31.1 mph0.00 inOvercast
12:56 PM66.9 °F63.0 °F87 %29.59 in6.0 miSSW (210°)23.0 mph33.4 mphOvercast
1:56 PM66.9 °F63.0 °F87 %29.58 in2.5 miSW (220°)28.8 mph44.9 mph0.00 inRainLight Rain
2:04 PM66.2 °F62.6 °F88 %29.58 in3.0 miSW (220°)20.7 mph40.3 mph0.00 inRainLight Rain
2:56 PM64.9 °F57.9 °F78 %29.58 in3.0 miSW (230°)20.7 mph0.02 inHaze
3:03 PM64.4 °F57.2 °F77 %29.58 in10.0 miSW (230°)20.7 mph28.8 mphOvercast
3:56 PM63.0 °F57.9 °F84 %29.57 in9.0 miSW (220°)17.3 mph23.0 mphOvercast
4:56 PM63.0 °F57.0 °F81 %29.57 in8.0 miSW (220°)19.6 mph28.8 mph0.00 inRainLight Rain
5:56 PM62.1 °F57.0 °F84 %29.56 in10.0 miSW (220°)19.6 mph26.5 mph0.00 inScattered Clouds
6:56 PM62.1 °F57.9 °F86 %29.59 in10.0 miSW (220°)20.7 mph26.5 mphOvercast
7:56 PM62.1 °F57.0 °F84 %29.61 in10.0 miSW (220°)18.4 mphClear
8:56 PM62.1 °F55.9 °F80 %29.62 in10.0 miSW (230°)19.6 mph25.3 mphClear
9:56 PM62.1 °F55.9 °F80 %29.65 in10.0 miSW (230°)13.8 mphClear
10:56 PM62.1 °F55.0 °F78 %29.66 in10.0 miWSW (250°)11.5 mphClear
11:56 PM62.1 °F55.0 °F78 %29.65 in10.0 miWSW (240°)10.4 mphClear
Hourly data recorded from KHYA, located miles away from Yarmouth, Massachusetts







STORIES FROM OUR PARTNERS